| time (UTC) | temp F | wind direction | speed knots | gust knots | rain 1hr in | rain 24hr in | rain mn in | humidity % | barometer mb |
| 20260504034503 | 55 | 50 | 1.7 | 3.5 | 0.00 | 0.00 | 0.00 | 48 | |
| 20260504034002 | 55 | 41 | 1.7 | 3.5 | 0.00 | 0.00 | 0.00 | 48 | |
| 20260504033504 | 55 | 47 | 3.5 | 6.1 | 0.00 | 0.00 | 0.00 | 48 | |
| 20260504033003 | 57 | 57 | 6.1 | 7.8 | 0.00 | 0.00 | 0.00 | 48 | |
| 20260504032503 | 57 | 51 | 6.1 | 7.8 | 0.00 | 0.00 | 0.00 | 47 | |
| 20260504032004 | 57 | 20 | 1.7 | 6.1 | 0.00 | 0.00 | 0.00 | 46 | |
| 20260504031503 | 57 | 14 | 3.5 | 9.6 | 0.00 | 0.00 | 0.00 | 46 | |
| 20260504031003 | 57 | 17 | 6.1 | 9.6 | 0.00 | 0.00 | 0.00 | 46 | |
| 20260504030503 | 57 | 7 | 3.5 | 9.6 | 0.00 | 0.00 | 0.00 | 46 | |
| 20260504030003 | 55 | 8 | 3.5 | 6.1 | 0.00 | 0.00 | 0.00 | 46 | |
| 20260504025502 | 55 | 7 | 3.5 | 7.8 | 0.00 | 0.00 | 0.00 | 47 | |
| 20260504025004 | 55 | 354 | 3.5 | 6.1 | 0.00 | 0.00 | 0.00 | 46 | |
| 20260504024503 | 55 | 329 | 3.5 | 6.1 | 0.00 | 0.00 | 0.00 | 46 | |
| 20260504024003 | 55 | 320 | 1.7 | 6.1 | 0.00 | 0.00 | 0.00 | 46 | |
| 20260504023503 | 55 | 341 | 1.7 | 3.5 | 0.00 | 0.00 | 0.00 | 46 | |
| 20260504023004 | 57 | 346 | 1.7 | 6.1 | 0.00 | 0.00 | 0.00 | 46 | |
| 20260504022502 | 57 | 355 | 3.5 | 6.1 | 0.00 | 0.00 | 0.00 | 45 | |
| 20260504022007 | 57 | 345 | 1.7 | 1.7 | 0.00 | 0.00 | 0.00 | 45 | |
| 20260504021504 | 57 | 304 | 1.7 | 1.7 | 0.00 | 0.00 | 0.00 | 45 | |
| 20260504021004 | 57 | 305 | 1.7 | 3.5 | 0.00 | 0.00 | 0.00 | 45 | |
| 20260504020503 | 57 | 303 | 1.7 | 3.5 | 0.00 | 0.00 | 0.00 | 45 | |
| 20260504020002 | 57 | 308 | 0.0 | 1.7 | 0.00 | 0.00 | 0.00 | 45 | |
| 20260504015503 | 57 | 339 | 1.7 | 6.1 | 0.00 | 0.00 | 0.00 | 46 | |
| 20260504015003 | 57 | 338 | 0.0 | 1.7 | 0.00 | 0.00 | 0.00 | 46 | |
| 20260504014504 | 57 | 348 | 3.5 | 7.8 | 0.00 | 0.00 | 0.00 | 46 | |
| 20260504014003 | 57 | 321 | 1.7 | 3.5 | 0.00 | 0.00 | 0.00 | 46 | |
| 20260504013503 | 57 | 9 | 3.5 | 6.1 | 0.00 | 0.00 | 0.00 | 46 | |
| 20260504013003 | 57 | 359 | 1.7 | 7.8 | 0.00 | 0.00 | 0.00 | 46 | |
| 20260504012503 | 57 | 349 | 1.7 | 3.5 | 0.00 | 0.00 | 0.00 | 46 | |
| 20260504012005 | 57 | 13 | 1.7 | 3.5 | 0.00 | 0.00 | 0.00 | 45 | |
| 20260504011503 | 57 | 5 | 3.5 | 6.1 | 0.00 | 0.00 | 0.00 | 45 | |
| 20260504011004 | 59 | 13 | 1.7 | 3.5 | 0.00 | 0.00 | 0.00 | 45 | |
| 20260504010503 | 59 | 18 | 0.0 | 1.7 | 0.00 | 0.00 | 0.00 | 44 | |
| 20260504010003 | 59 | 51 | 1.7 | 1.7 | 0.00 | 0.00 | 0.00 | 44 | |
| 20260504005503 | 59 | 50 | 1.7 | 1.7 | 0.00 | 0.00 | 0.00 | 44 | |
| 20260504005004 | 59 | 11 | 1.7 | 1.7 | 0.00 | 0.00 | 0.00 | 44 | |
| 20260504004003 | 59 | 36 | 0.0 | 0.0 | 0.00 | 0.00 | 0.00 | 44 | |
| 20260504002503 | 59 | 21 | 0.0 | 0.0 | 0.00 | 0.00 | 0.00 | 44 | |
| 20260504002006 | 59 | 30 | 1.7 | 1.7 | 0.00 | 0.00 | 0.00 | 44 | |
| 20260504001503 | 59 | 344 | 1.7 | 1.7 | 0.00 | 0.00 | 0.00 | 44 | |
| 20260504001003 | 59 | 49 | 0.0 | 0.0 | 0.00 | 0.00 | 0.00 | 44 | |
| 20260504000503 | 59 | 23 | 1.7 | 1.7 | 0.00 | 0.00 | 0.00 | 44 | |
| 20260504000004 | 59 | 29 | 0.0 | 0.0 | 0.00 | 0.00 | 0.00 | 43 | |
| 20260503235003 | 59 | 342 | 1.7 | 3.5 | 0.00 | 0.00 | 0.00 | 43 | |
| 20260503234504 | 59 | 54 | 0.0 | 1.7 | 0.00 | 0.00 | 0.00 | 43 | |
| 20260503234004 | 59 | 178 | 0.0 | 0.0 | 0.00 | 0.00 | 0.00 | 43 | |
| 20260503233504 | 59 | 168 | 1.7 | 1.7 | 0.00 | 0.00 | 0.00 | 43 | |
| 20260503233004 | 59 | 142 | 0.0 | 0.0 | 0.00 | 0.00 | 0.00 | 43 | |
| 20260503232503 | 59 | 157 | 1.7 | 3.5 | 0.00 | 0.00 | 0.00 | 44 | |
| 20260503232007 | 61 | 137 | 1.7 | 3.5 | 0.00 | 0.00 | 0.00 | 43 | |
| 20260503231503 | 61 | 148 | 3.5 | 3.5 | 0.00 | 0.00 | 0.00 | 43 | |
| 20260503231003 | 61 | 162 | 1.7 | 1.7 | 0.00 | 0.00 | 0.00 | 43 | |
| 20260503230503 | 61 | 139 | 3.5 | 3.5 | 0.00 | 0.00 | 0.00 | 43 | |
| 20260503230004 | 61 | 134 | 1.7 | 3.5 | 0.00 | 0.00 | 0.00 | 43 | |
| 20260503225503 | 61 | 154 | 1.7 | 1.7 | 0.00 | 0.00 | 0.00 | 43 | |
| 20260503225003 | 61 | 128 | 3.5 | 3.5 | 0.00 | 0.00 | 0.00 | 43 | |
| 20260503224504 | 61 | 129 | 3.5 | 3.5 | 0.00 | 0.00 | 0.00 | 42 | |
| 20260503224003 | 61 | 145 | 1.7 | 3.5 | 0.00 | 0.00 | 0.00 | 42 | |
| 20260503223504 | 61 | 151 | 3.5 | 3.5 | 0.00 | 0.00 | 0.00 | 42 | |
| 20260503223003 | 61 | 150 | 3.5 | 6.1 | 0.00 | 0.00 | 0.00 | 42 | |
| 20260503222503 | 61 | 142 | 6.1 | 6.1 | 0.00 | 0.00 | 0.00 | 42 | |
| 20260503222005 | 61 | 149 | 6.1 | 6.1 | 0.00 | 0.00 | 0.00 | 42 | |
| 20260503221504 | 61 | 148 | 6.1 | 7.8 | 0.00 | 0.00 | 0.00 | 42 | |
| 20260503221004 | 61 | 135 | 6.1 | 7.8 | 0.00 | 0.00 | 0.00 | 42 | |
| 20260503220504 | 61 | 110 | 3.5 | 6.1 | 0.00 | 0.00 | 0.00 | 41 | |
| 20260503220004 | 63 | 114 | 3.5 | 6.1 | 0.00 | 0.00 | 0.00 | 41 | |
| 20260503215503 | 63 | 134 | 3.5 | 3.5 | 0.00 | 0.00 | 0.00 | 40 | |
| 20260503215004 | 63 | 112 | 1.7 | 3.5 | 0.00 | 0.00 | 0.00 | 40 | |
| 20260503214503 | 63 | 176 | 1.7 | 3.5 | 0.00 | 0.00 | 0.00 | 40 | |
| 20260503214003 | 63 | 176 | 6.1 | 7.8 | 0.00 | 0.00 | 0.00 | 41 | |
| 20260503213503 | 63 | 157 | 1.7 | 1.7 | 0.00 | 0.00 | 0.00 | 39 | |
| 20260503213003 | 63 | 114 | 1.7 | 1.7 | 0.00 | 0.00 | 0.00 | 39 | |
| 20260503212504 | 63 | 96 | 1.7 | 1.7 | 0.00 | 0.00 | 0.00 | 39 | |
| 20260503212006 | 63 | 172 | 1.7 | 1.7 | 0.00 | 0.00 | 0.00 | 39 | |
| 20260503211503 | 63 | 144 | 7.8 | 9.6 | 0.00 | 0.00 | 0.00 | 40 | |
| 20260503211004 | 63 | 158 | 3.5 | 6.1 | 0.00 | 0.00 | 0.00 | 39 | |
| 20260503210504 | 63 | 137 | 6.1 | 7.8 | 0.00 | 0.00 | 0.00 | 39 | |
| 20260503210003 | 63 | 142 | 3.5 | 6.1 | 0.00 | 0.00 | 0.00 | 38 | |
| 20260503205503 | 64 | 185 | 3.5 | 6.1 | 0.00 | 0.00 | 0.00 | 38 | |
| 20260503205003 | 64 | 146 | 3.5 | 6.1 | 0.00 | 0.00 | 0.00 | 38 | |
| 20260503204503 | 64 | 154 | 6.1 | 9.6 | 0.00 | 0.00 | 0.00 | 38 | |
| 20260503204003 | 64 | 145 | 9.6 | 13.9 | 0.00 | 0.00 | 0.00 | 38 | |
| 20260503203503 | 64 | 108 | 6.1 | 7.8 | 0.00 | 0.00 | 0.00 | 37 | |
| 20260503203003 | 64 | 131 | 6.1 | 7.8 | 0.00 | 0.00 | 0.00 | 37 | |
| 20260503202503 | 64 | 111 | 1.7 | 3.5 | 0.00 | 0.00 | 0.00 | 36 | |
| 20260503202005 | 64 | 120 | 1.7 | 3.5 | 0.00 | 0.00 | 0.00 | 36 | |
| 20260503201508 | 64 | 139 | 6.1 | 7.8 | 0.00 | 0.00 | 0.00 | 36 | |
| 20260503201003 | 64 | 175 | 7.8 | 9.6 | 0.00 | 0.00 | 0.00 | 36 | |
| 20260503200503 | 64 | 115 | 3.5 | 3.5 | 0.00 | 0.00 | 0.00 | 35 | |
| 20260503200004 | 64 | 123 | 3.5 | 7.8 | 0.00 | 0.00 | 0.00 | 35 | |
| 20260503195503 | 66 | 131 | 6.1 | 7.8 | 0.00 | 0.00 | 0.00 | 35 | |
| 20260503195003 | 66 | 136 | 7.8 | 11.3 | 0.00 | 0.00 | 0.00 | 35 | |
| 20260503194503 | 66 | 132 | 6.1 | 6.1 | 0.00 | 0.00 | 0.00 | 35 | |
| 20260503194002 | 66 | 136 | 3.5 | 7.8 | 0.00 | 0.00 | 0.00 | 35 | |
| 20260503193503 | 66 | 118 | 7.8 | 9.6 | 0.00 | 0.00 | 0.00 | 34 | |
| 20260503193003 | 66 | 116 | 1.7 | 3.5 | 0.00 | 0.00 | 0.00 | 34 | |
| 20260503192504 | 66 | 113 | 6.1 | 7.8 | 0.00 | 0.00 | 0.00 | 34 | |
| 20260503192005 | 66 | 122 | 3.5 | 7.8 | 0.00 | 0.00 | 0.00 | 34 | |
| 20260503191503 | 66 | 100 | 3.5 | 6.1 | 0.00 | 0.00 | 0.00 | 34 | |
| 20260503191002 | 66 | 109 | 0.0 | 1.7 | 0.00 | 0.00 | 0.00 | 34 | |
| 20260503190504 | 66 | 119 | 6.1 | 6.1 | 0.00 | 0.00 | 0.00 | 33 | |
| 20260503190003 | 66 | 116 | 3.5 | 7.8 | 0.00 | 0.00 | 0.00 | 33 | |
| 20260503185503 | 66 | 124 | 6.1 | 7.8 | 0.00 | 0.00 | 0.00 | 33 | |
| 20260503185003 | 66 | 107 | 6.1 | 7.8 | 0.00 | 0.00 | 0.00 | 33 | |
| 20260503184504 | 66 | 109 | 6.1 | 7.8 | 0.00 | 0.00 | 0.00 | 33 | |
| 20260503184004 | 66 | 111 | 6.1 | 7.8 | 0.00 | 0.00 | 0.00 | 33 | |
| 20260503183503 | 66 | 112 | 6.1 | 6.1 | 0.00 | 0.00 | 0.00 | 33 | |
| 20260503183004 | 66 | 113 | 6.1 | 7.8 | 0.00 | 0.00 | 0.00 | 33 | |
| 20260503182503 | 68 | 114 | 6.1 | 9.6 | 0.00 | 0.00 | 0.00 | 33 | |
| 20260503182007 | 68 | 101 | 6.1 | 7.8 | 0.00 | 0.00 | 0.00 | 33 | |
| 20260503181505 | 68 | 121 | 6.1 | 7.8 | 0.00 | 0.00 | 0.00 | 33 | |
| 20260503181004 | 68 | 119 | 6.1 | 7.8 | 0.00 | 0.00 | 0.00 | 33 | |
| 20260503180504 | 68 | 123 | 6.1 | 7.8 | 0.00 | 0.00 | 0.00 | 32 | |
| 20260503180008 | 68 | 135 | 6.1 | 6.1 | 0.00 | 0.00 | 0.00 | 32 | |
| 20260503175503 | 68 | 143 | 6.1 | 6.1 | 0.00 | 0.00 | 0.00 | 32 | |
| 20260503175003 | 68 | 143 | 6.1 | 7.8 | 0.00 | 0.00 | 0.00 | 32 | |
| 20260503174503 | 68 | 128 | 6.1 | 6.1 | 0.00 | 0.00 | 0.00 | 33 | |
| 20260503174003 | 68 | 133 | 3.5 | 6.1 | 0.00 | 0.00 | 0.00 | 33 | |
| 20260503173504 | 68 | 117 | 3.5 | 3.5 | 0.00 | 0.00 | 0.00 | 33 | |
| 20260503173004 | 68 | 138 | 3.5 | 3.5 | 0.00 | 0.00 | 0.00 | 33 | |
| 20260503172504 | 68 | 148 | 3.5 | 6.1 | 0.00 | 0.00 | 0.00 | 33 | |
| 20260503172006 | 68 | 151 | 3.5 | 6.1 | 0.00 | 0.00 | 0.00 | 32 | |
| 20260503171503 | 68 | 153 | 3.5 | 3.5 | 0.00 | 0.00 | 0.00 | 32 | |
| 20260503171004 | 68 | 144 | 3.5 | 3.5 | 0.00 | 0.00 | 0.00 | 33 | |
| 20260503170504 | 68 | 124 | 3.5 | 3.5 | 0.00 | 0.00 | 0.00 | 33 | |
| 20260503151003 | 70 | 128 | 1.7 | 3.5 | 0.00 | 0.00 | 0.00 | 32 | |
| 20260503150504 | 70 | 134 | 3.5 | 6.1 | 0.00 | 0.00 | 0.00 | 33 | |
| 20260503131003 | 70 | 170 | 3.5 | 11.3 | 0.00 | 0.00 | 0.00 | 35 | |
| 20260503130503 | 68 | 179 | 3.5 | 6.1 | 0.00 | 0.00 | 0.00 | 35 | |
| 20260503110503 | 66 | 114 | 1.7 | 3.5 | 0.00 | 0.00 | 0.00 | 39 | |
| 20260503090503 | 66 | 140 | 1.7 | 3.5 | 0.00 | 0.00 | 0.00 | 39 | |
| 20260503081503 | 61 | 128 | 1.7 | 3.5 | 0.00 | 0.00 | 0.00 | 42 | |
| 20260503081003 | 61 | 139 | 1.7 | 3.5 | 0.00 | 0.00 | 0.00 | 42 | |
| 20260503080503 | 61 | 146 | 1.7 | 3.5 | 0.00 | 0.00 | 0.00 | 44 | |
| 20260503072502 | 59 | 137 | 1.7 | 1.7 | 0.00 | 0.00 | 0.00 | 44 | |
| 20260503072003 | 59 | 115 | 1.7 | 1.7 | 0.00 | 0.00 | 0.00 | 43 | |
| 20260503071503 | 59 | 126 | 0.0 | 1.7 | 0.00 | 0.00 | 0.00 | 44 | |
| 20260503071003 | 57 | 133 | 0.0 | 1.7 | 0.00 | 0.00 | 0.00 | 44 | |
| 20260503070504 | 59 | 111 | 0.0 | 1.7 | 0.00 | 0.00 | 0.00 | 43 | |
| 20260503055002 | 54 | 51 | 1.7 | 1.7 | 0.00 | 0.00 | 0.00 | 45 | |
| 20260503054504 | 54 | 49 | 1.7 | 3.5 | 0.00 | 0.00 | 0.00 | 45 | |
| 20260503054003 | 54 | 51 | 1.7 | 1.7 | 0.00 | 0.00 | 0.00 | 45 | |
| 20260503053504 | 54 | 63 | 1.7 | 1.7 | 0.00 | 0.00 | 0.00 | 45 | |
| 20260503053002 | 55 | 79 | 1.7 | 1.7 | 0.00 | 0.00 | 0.00 | 45 | |
| 20260503052502 | 55 | 59 | 1.7 | 1.7 | 0.00 | 0.00 | 0.00 | 44 | |
| 20260503052005 | 55 | 58 | 0.0 | 1.7 | 0.00 | 0.00 | 0.00 | 44 | |
| 20260503051504 | 55 | 52 | 1.7 | 1.7 | 0.00 | 0.00 | 0.00 | 44 | |
| 20260503051004 | 55 | 39 | 0.0 | 1.7 | 0.00 | 0.00 | 0.00 | 44 | |
| 20260503050503 | 54 | 37 | 1.7 | 1.7 | 0.00 | 0.00 | 0.00 | 44 | |
| 20260503050003 | 54 | 24 | 1.7 | 1.7 | 0.00 | 0.00 | 0.00 | 45 | |
| 20260503045503 | 54 | 12 | 3.5 | 3.5 | 0.00 | 0.00 | 0.00 | 45 | |
| 20260503045003 | 52 | 14 | 3.5 | 3.5 | 0.00 | 0.00 | 0.00 | 45 | |
| 20260503044504 | 52 | 19 | 3.5 | 3.5 | 0.00 | 0.00 | 0.00 | 45 | |
| 20260503044003 | 52 | 17 | 3.5 | 3.5 | 0.00 | 0.00 | 0.00 | 45 | |
| 20260503043503 | 52 | 25 | 3.5 | 3.5 | 0.00 | 0.00 | 0.00 | 45 | |
| 20260503043003 | 52 | 39 | 3.5 | 3.5 | 0.00 | 0.00 | 0.00 | 46 | |
| 20260503042503 | 52 | 59 | 3.5 | 3.5 | 0.00 | 0.00 | 0.00 | 45 | |
| 20260503042005 | 52 | 89 | 1.7 | 3.5 | 0.00 | 0.00 | 0.00 | 43 | |
| 20260503041504 | 52 | 116 | 3.5 | 3.5 | 0.00 | 0.00 | 0.00 | 43 | |
| 20260503041003 | 54 | 142 | 3.5 | 3.5 | 0.00 | 0.00 | 0.00 | 43 | |
| 20260503040503 | 54 | 157 | 1.7 | 3.5 | 0.00 | 0.00 | 0.00 | 43 | |
| 20260503040003 | 54 | 166 | 1.7 | 1.7 | 0.00 | 0.00 | 0.00 | 43 | |
| 20260503035502 | 54 | 186 | 1.7 | 1.7 | 0.00 | 0.00 | 0.00 | 41 | |
| 20260503035003 | 54 | 122 | 0.0 | 0.0 | 0.00 | 0.00 | 0.00 | 41 |